Time,TemperatureF,DewpointF,PressureIn,WindDirection,WindDirectionDegrees,WindSpeedMPH,WindSpeedGustMPH,Humidity,HourlyPrecipIn,Conditions,Clouds,dailyrainin,SoftwareType,DateUTC
2013-01-11 00:22:00,50.0,-99.9,30.14,NW,320,22.0,27.0,-999,-99.99,,,-99.99,,2013-01-11 08:22:00,
2013-01-11 00:32:00,50.0,-99.9,30.14,NW,320,22.0,27.0,-999,-99.99,,,-99.99,,2013-01-11 08:32:00,
2013-01-11 00:42:00,50.0,-99.9,30.14,NW,320,22.0,27.0,-999,-99.99,,,-99.99,,2013-01-11 08:42:00,
2013-01-11 00:50:00,49.0,-99.9,30.15,NW,310,22.0,27.0,-999,-99.99,,,-99.99,,2013-01-11 08:50:00,
2013-01-11 01:23:00,49.0,-99.9,30.15,NW,310,22.0,27.0,-999,-99.99,,,-99.99,,2013-01-11 09:23:00,
2013-01-11 01:32:00,49.0,-99.9,30.15,NW,310,22.0,27.0,-999,-99.99,,,-99.99,,2013-01-11 09:32:00,
2013-01-11 01:43:00,49.0,-99.9,30.15,NW,310,22.0,27.0,-999,-99.99,,,-99.99,,2013-01-11 09:43:00,
2013-01-11 01:50:00,49.0,-99.9,30.16,NW,310,20.0,25.0,-999,-99.99,,,-99.99,,2013-01-11 09:50:00,
2013-01-11 02:22:00,49.0,-99.9,30.16,NW,310,20.0,25.0,-999,-99.99,,,-99.99,,2013-01-11 10:22:00,
2013-01-11 02:32:00,49.0,-99.9,30.16,NW,310,20.0,25.0,-999,-99.99,,,-99.99,,2013-01-11 10:32:00,
2013-01-11 02:43:00,49.0,-99.9,30.16,NW,310,20.0,25.0,-999,-99.99,,,-99.99,,2013-01-11 10:43:00,
2013-01-11 02:50:00,48.0,-99.9,30.17,NW,310,22.0,25.0,-999,-99.99,,,-99.99,,2013-01-11 10:50:00,
2013-01-11 03:23:00,48.0,-99.9,30.17,NW,310,22.0,25.0,-999,-99.99,,,-99.99,,2013-01-11 11:23:00,
2013-01-11 03:33:00,48.0,-99.9,30.17,NW,310,22.0,25.0,-999,-99.99,,,-99.99,,2013-01-11 11:33:00,
2013-01-11 03:43:00,48.0,-99.9,30.17,NW,310,22.0,25.0,-999,-99.99,,,-99.99,,2013-01-11 11:43:00,
2013-01-11 03:50:00,49.0,-99.9,30.17,NW,320,22.0,27.0,-999,-99.99,,,-99.99,,2013-01-11 11:50:00,
2013-01-11 04:23:00,49.0,-99.9,30.17,NW,320,22.0,27.0,-999,-99.99,,,-99.99,,2013-01-11 12:23:00,
2013-01-11 04:33:00,49.0,-99.9,30.17,NW,320,22.0,27.0,-999,-99.99,,,-99.99,,2013-01-11 12:33:00,
2013-01-11 04:43:00,49.0,-99.9,30.17,NW,320,22.0,27.0,-999,-99.99,,,-99.99,,2013-01-11 12:43:00,
2013-01-11 04:50:00,49.0,-99.9,30.17,NW,320,20.0,22.0,-999,-99.99,,,-99.99,,2013-01-11 12:50:00,
2013-01-11 05:23:00,49.0,-99.9,30.17,NW,320,20.0,22.0,-999,-99.99,,,-99.99,,2013-01-11 13:23:00,
2013-01-11 05:33:00,49.0,-99.9,30.17,NW,320,20.0,22.0,-999,-99.99,,,-99.99,,2013-01-11 13:33:00,
2013-01-11 05:43:00,49.0,-99.9,30.17,NW,320,20.0,22.0,-999,-99.99,,,-99.99,,2013-01-11 13:43:00,
2013-01-11 05:50:00,49.0,-99.9,30.19,WNW,300,16.0,20.0,-999,-99.99,,,-99.99,,2013-01-11 13:50:00,
2013-01-11 06:23:00,49.0,-99.9,30.19,WNW,300,16.0,20.0,-999,-99.99,,,-99.99,,2013-01-11 14:23:00,
2013-01-11 06:33:00,49.0,-99.9,30.19,WNW,300,16.0,20.0,-999,-99.99,,,-99.99,,2013-01-11 14:33:00,
2013-01-11 06:43:00,49.0,-99.9,30.19,WNW,300,16.0,20.0,-999,-99.99,,,-99.99,,2013-01-11 14:43:00,
2013-01-11 06:50:00,49.0,-99.9,30.19,WNW,300,18.0,20.0,-999,-99.99,,,-99.99,,2013-01-11 14:50:00,
2013-01-11 07:23:00,49.0,-99.9,30.19,WNW,300,18.0,20.0,-999,-99.99,,,-99.99,,2013-01-11 15:23:00,
2013-01-11 07:33:00,49.0,-99.9,30.19,WNW,300,18.0,20.0,-999,-99.99,,,-99.99,,2013-01-11 15:33:00,
2013-01-11 07:43:00,49.0,-99.9,30.19,WNW,300,18.0,20.0,-999,-99.99,,,-99.99,,2013-01-11 15:43:00,
2013-01-11 07:50:00,49.0,-99.9,30.19,WNW,300,18.0,22.0,-999,-99.99,,,-99.99,,2013-01-11 15:50:00,
2013-01-11 08:23:00,49.0,-99.9,30.19,WNW,300,18.0,22.0,-999,-99.99,,,-99.99,,2013-01-11 16:23:00,
2013-01-11 08:33:00,49.0,-99.9,30.19,WNW,300,18.0,22.0,-999,-99.99,,,-99.99,,2013-01-11 16:33:00,
2013-01-11 08:43:00,49.0,-99.9,30.19,WNW,300,18.0,22.0,-999,-99.99,,,-99.99,,2013-01-11 16:43:00,
2013-01-11 08:50:00,49.0,-99.9,30.20,WNW,300,20.0,25.0,-999,-99.99,,,-99.99,,2013-01-11 16:50:00,
2013-01-11 09:23:00,49.0,-99.9,30.20,WNW,300,20.0,25.0,-999,-99.99,,,-99.99,,2013-01-11 17:23:00,
2013-01-11 09:33:00,49.0,-99.9,30.20,WNW,300,20.0,25.0,-999,-99.99,,,-99.99,,2013-01-11 17:33:00,
2013-01-11 09:43:00,49.0,-99.9,30.20,WNW,300,20.0,25.0,-999,-99.99,,,-99.99,,2013-01-11 17:43:00,
2013-01-11 09:50:00,50.0,-99.9,30.21,NW,310,20.0,25.0,-999,-99.99,,,-99.99,,2013-01-11 17:50:00,
2013-01-11 10:24:00,50.0,-99.9,30.21,NW,310,20.0,25.0,-999,-99.99,,,-99.99,,2013-01-11 18:24:00,
2013-01-11 10:33:00,50.0,-99.9,30.21,NW,310,20.0,25.0,-999,-99.99,,,-99.99,,2013-01-11 18:33:00,
2013-01-11 10:43:00,50.0,-99.9,30.21,NW,310,20.0,25.0,-999,-99.99,,,-99.99,,2013-01-11 18:43:00,
2013-01-11 10:50:00,50.0,-99.9,30.19,NW,310,22.0,27.0,-999,-99.99,,,-99.99,,2013-01-11 18:50:00,
2013-01-11 11:23:00,50.0,-99.9,30.19,NW,310,22.0,27.0,-999,-99.99,,,-99.99,,2013-01-11 19:23:00,
2013-01-11 11:33:00,50.0,-99.9,30.19,NW,310,22.0,27.0,-999,-99.99,,,-99.99,,2013-01-11 19:33:00,
2013-01-11 11:43:00,50.0,-99.9,30.19,NW,310,22.0,27.0,-999,-99.99,,,-99.99,,2013-01-11 19:43:00,
2013-01-11 11:50:00,51.0,-99.9,30.16,NW,310,22.0,27.0,-999,-99.99,,,-99.99,,2013-01-11 19:50:00,
2013-01-11 12:23:00,51.0,-99.9,30.16,NW,310,22.0,27.0,-999,-99.99,,,-99.99,,2013-01-11 20:23:00,
2013-01-11 12:33:00,51.0,-99.9,30.16,NW,310,22.0,27.0,-999,-99.99,,,-99.99,,2013-01-11 20:33:00,
2013-01-11 12:43:00,51.0,-99.9,30.16,NW,310,22.0,27.0,-999,-99.99,,,-99.99,,2013-01-11 20:43:00,
2013-01-11 12:50:00,51.0,-99.9,30.14,NW,310,18.0,22.0,-999,-99.99,,,-99.99,,2013-01-11 20:50:00,
2013-01-11 13:23:00,51.0,-99.9,30.14,NW,310,18.0,22.0,-999,-99.99,,,-99.99,,2013-01-11 21:23:00,
2013-01-11 13:33:00,51.0,-99.9,30.14,NW,310,18.0,22.0,-999,-99.99,,,-99.99,,2013-01-11 21:33:00,
2013-01-11 13:43:00,51.0,-99.9,30.14,NW,310,18.0,22.0,-999,-99.99,,,-99.99,,2013-01-11 21:43:00,
2013-01-11 13:50:00,52.0,-99.9,30.12,WNW,300,18.0,22.0,-999,-99.99,,,-99.99,,2013-01-11 21:50:00,
2013-01-11 14:23:00,52.0,-99.9,30.12,WNW,300,18.0,22.0,-999,-99.99,,,-99.99,,2013-01-11 22:23:00,
2013-01-11 14:33:00,52.0,-99.9,30.12,WNW,300,18.0,22.0,-999,-99.99,,,-99.99,,2013-01-11 22:33:00,
2013-01-11 14:43:00,52.0,-99.9,30.12,WNW,300,18.0,22.0,-999,-99.99,,,-99.99,,2013-01-11 22:43:00,
2013-01-11 14:50:00,53.0,-99.9,30.12,WNW,290,22.0,27.0,-999,-99.99,,,-99.99,,2013-01-11 22:50:00,
2013-01-11 15:23:00,53.0,-99.9,30.12,WNW,290,22.0,27.0,-999,-99.99,,,-99.99,,2013-01-11 23:23:00,
2013-01-11 15:33:00,53.0,-99.9,30.12,WNW,290,22.0,27.0,-999,-99.99,,,-99.99,,2013-01-11 23:33:00,
2013-01-11 15:43:00,53.0,-99.9,30.12,WNW,290,22.0,27.0,-999,-99.99,,,-99.99,,2013-01-11 23:43:00,
2013-01-11 15:50:00,53.0,-99.9,30.11,WNW,300,22.0,29.0,-999,-99.99,,,-99.99,,2013-01-11 23:50:00,
2013-01-11 16:23:00,53.0,-99.9,30.11,WNW,300,22.0,29.0,-999,-99.99,,,-99.99,,2013-01-12 00:23:00,
2013-01-11 16:33:00,53.0,-99.9,30.11,WNW,300,22.0,29.0,-999,-99.99,,,-99.99,,2013-01-12 00:33:00,
2013-01-11 16:43:00,53.0,-99.9,30.11,WNW,300,22.0,29.0,-999,-99.99,,,-99.99,,2013-01-12 00:43:00,
2013-01-11 16:50:00,53.0,-99.9,30.11,NW,310,22.0,27.0,-999,-99.99,,,-99.99,,2013-01-12 00:50:00,
2013-01-11 17:23:00,53.0,-99.9,30.11,NW,310,22.0,27.0,-999,-99.99,,,-99.99,,2013-01-12 01:23:00,
2013-01-11 17:33:00,53.0,-99.9,30.11,NW,310,22.0,27.0,-999,-99.99,,,-99.99,,2013-01-12 01:33:00,
2013-01-11 17:43:00,53.0,-99.9,30.11,NW,310,22.0,27.0,-999,-99.99,,,-99.99,,2013-01-12 01:43:00,
2013-01-11 17:50:00,53.0,-99.9,30.11,WNW,300,22.0,27.0,-999,-99.99,,,-99.99,,2013-01-12 01:50:00,
2013-01-11 18:22:00,53.0,-99.9,30.11,WNW,300,22.0,27.0,-999,-99.99,,,-99.99,,2013-01-12 02:22:00,
2013-01-11 18:33:00,53.0,-99.9,30.11,WNW,300,22.0,27.0,-999,-99.99,,,-99.99,,2013-01-12 02:33:00,
2013-01-11 18:43:00,53.0,-99.9,30.11,WNW,300,22.0,27.0,-999,-99.99,,,-99.99,,2013-01-12 02:43:00,
2013-01-11 18:50:00,51.0,-99.9,30.11,WNW,300,25.0,27.0,-999,-99.99,,,-99.99,,2013-01-12 02:50:00,
2013-01-11 19:22:00,51.0,-99.9,30.11,WNW,300,25.0,27.0,-999,-99.99,,,-99.99,,2013-01-12 03:22:00,
2013-01-11 19:33:00,51.0,-99.9,30.11,WNW,300,25.0,27.0,-999,-99.99,,,-99.99,,2013-01-12 03:33:00,
2013-01-11 19:43:00,51.0,-99.9,30.11,WNW,300,25.0,27.0,-999,-99.99,,,-99.99,,2013-01-12 03:43:00,
2013-01-11 19:50:00,51.0,-99.9,30.11,WNW,300,20.0,-999.0,-999,-99.99,,,-99.99,,2013-01-12 03:50:00,
2013-01-11 20:22:00,51.0,-99.9,30.11,WNW,300,20.0,-999.0,-999,-99.99,,,-99.99,,2013-01-12 04:22:00,
2013-01-11 20:33:00,51.0,-99.9,30.11,WNW,300,20.0,-999.0,-999,-99.99,,,-99.99,,2013-01-12 04:33:00,
2013-01-11 20:43:00,51.0,-99.9,30.11,WNW,300,20.0,-999.0,-999,-99.99,,,-99.99,,2013-01-12 04:43:00,
2013-01-11 20:50:00,51.0,-99.9,30.11,NW,320,18.0,20.0,-999,-99.99,,,-99.99,,2013-01-12 04:50:00,
2013-01-11 21:22:00,51.0,-99.9,30.11,NW,320,18.0,20.0,-999,-99.99,,,-99.99,,2013-01-12 05:22:00,
2013-01-11 21:32:00,51.0,-99.9,30.11,NW,320,18.0,20.0,-999,-99.99,,,-99.99,,2013-01-12 05:32:00,
2013-01-11 21:42:00,51.0,-99.9,30.11,NW,320,18.0,20.0,-999,-99.99,,,-99.99,,2013-01-12 05:42:00,
2013-01-11 21:50:00,51.0,-99.9,30.11,NW,320,18.0,20.0,-999,-99.99,,,-99.99,,2013-01-12 05:50:00,
2013-01-11 22:23:00,51.0,-99.9,30.11,NW,320,18.0,20.0,-999,-99.99,,,-99.99,,2013-01-12 06:23:00,
2013-01-11 22:33:00,51.0,-99.9,30.11,NW,320,18.0,20.0,-999,-99.99,,,-99.99,,2013-01-12 06:33:00,
2013-01-11 22:43:00,51.0,-99.9,30.11,NW,320,18.0,20.0,-999,-99.99,,,-99.99,,2013-01-12 06:43:00,
2013-01-11 22:50:00,-999.0,-99.9,-100.00,NW,320,13.0,-999.0,-999,-99.99,,,-99.99,,2013-01-12 06:50:00,
2013-01-11 23:22:00,-999.0,-99.9,-100.00,NW,320,13.0,-999.0,-999,-99.99,,,-99.99,,2013-01-12 07:22:00,
2013-01-11 23:32:00,-999.0,-99.9,-100.00,NW,320,13.0,-999.0,-999,-99.99,,,-99.99,,2013-01-12 07:32:00,
2013-01-11 23:42:00,-999.0,-99.9,-100.00,NW,320,13.0,-999.0,-999,-99.99,,,-99.99,,2013-01-12 07:42:00,
2013-01-11 23:50:00,51.0,-99.9,30.11,NW,310,13.0,16.0,-999,-99.99,,,-99.99,,2013-01-12 07:50:00,